Montgomery, NY

2:10 AM EST on November 15, 2019 (GMT -0500)
Orange County

Weather History for KMGJ - October, 2019

Change the Weather History Date:

Monday, October 14, 2019

  Actual Average (WUND) Record (WUND)
Temperature  
Mean Temperature 56 °F -  
Max Temperature 72 °F - - (-1)
Min Temperature 39 °F - - (-1)
Degree Days  
Heating Degree Days 10    
Growing Degree Days 6 (Base 50)    
Moisture  
Dew Point 43 °F    
Average Humidity 76    
Maximum Humidity 100    
Minimum Humidity 30    
Precipitation  
Precipitation 0.00 in - - ()
Sea Level Pressure  
Sea Level Pressure 29.97 in    
Wind  
Wind Speed 2 mph (WSW)    
Max Wind Speed 14 mph    
Max Gust Speed 18 mph    
Visibility 8 miles    
Events      
Averages and records for this station are not official NWS values.
T = Trace of Precipitation, MM = Missing Value Source: NWS Daily Summary

Daily Weather History Graph

Daily Weather History Graph

Search for Another Location

Airport or City:

Astronomy

Oct. 14, 2019 Rise Set
Actual Time 7:07 AM EDT 6:17 PM EDT
Civil Twilight 6:39 AM EDT 6:45 PM EDT
Nautical Twilight 6:07 AM EDT 7:17 PM EDT
Astronomical Twilight 5:35 AM EDT 7:49 PM EDT
Moon 7:06 PM EDT (10/14) 7:36 AM EDT (10/14)
Length of Visible Light 12h 05m
Length of Day
11h 10m
Waxing Gibbous, 99% of the Moon is Illuminated
Oct 14
Waxing Gibbous
Oct 21
Last Quarter
Oct 27
New
Nov 4
First Quarter
Nov 12
Full

Hourly Weather History & Observations

Time (EDT) Temp. Windchill Dew Point Humidity Pressure Visibility Wind Dir Wind Speed Gust Speed Precip Events Conditions
12:54 AM 45.0 °F - 44.1 °F 97% 30.00 in 10.0 mi Calm Calm - N/A   Clear
1:31 AM 44.1 °F - 43.0 °F 96% 29.99 in 3.0 mi Calm Calm - N/A   Partly Cloudy
1:54 AM 43.0 °F - 43.0 °F 100% 29.99 in 2.5 mi Calm Calm - N/A   Partly Cloudy
1:59 AM 42.1 °F - 42.1 °F 100% 29.99 in 1.0 mi Calm Calm - N/A   Clear
2:09 AM 43.0 °F - 42.1 °F 97% 29.98 in 2.0 mi Calm Calm - N/A   Clear
2:15 AM 43.0 °F - 42.1 °F 97% 29.98 in 5.0 mi Calm Calm - N/A   Partly Cloudy
2:54 AM 42.1 °F - 41.0 °F 96% 29.97 in 10.0 mi Calm Calm - N/A   Clear
3:38 AM 42.1 °F - 41.0 °F 96% 29.95 in 7.0 mi Calm Calm - N/A   Mostly Cloudy
3:54 AM 39.9 °F - 39.9 °F 100% 29.95 in 3.0 mi Calm Calm - N/A   Scattered Clouds
4:01 AM 39.9 °F - 39.0 °F 97% 29.95 in 2.0 mi Calm Calm - N/A   Scattered Clouds
4:05 AM 41.0 °F - 39.9 °F 96% 29.95 in 5.0 mi Calm Calm - N/A   Mostly Cloudy
4:54 AM 45.0 °F - 44.1 °F 97% 29.96 in 10.0 mi Calm Calm - N/A   Overcast
5:54 AM 46.0 °F - 46.0 °F 100% 29.97 in 10.0 mi Calm Calm - N/A   Overcast
6:54 AM 46.9 °F - 46.0 °F 97% 29.99 in 10.0 mi Calm Calm - N/A   Overcast
7:32 AM 46.0 °F 44.8 °F 45.0 °F 96% 29.98 in 10.0 mi SW 3.5 mph - N/A   Scattered Clouds
8:54 AM 51.1 °F - 48.9 °F 92% 29.99 in 10.0 mi SSE 4.6 mph - N/A   Clear
9:54 AM 57.9 °F - 51.1 °F 78% 29.99 in 10.0 mi SW 9.2 mph - N/A   Clear
10:54 AM 61.0 °F - 51.1 °F 70% 29.98 in 10.0 mi SSW 8.1 mph - N/A   Clear
11:54 AM 64.0 °F - 50.0 °F 60% 29.95 in 10.0 mi SSW 9.2 mph - N/A   Partly Cloudy
12:54 PM 66.9 °F - 45.0 °F 45% 29.93 in 10.0 mi WSW 13.8 mph 18.4 mph N/A   Clear
1:54 PM 69.1 °F - 46.0 °F 44% 29.91 in 10.0 mi West 10.4 mph - N/A   Partly Cloudy
2:54 PM 71.1 °F - 45.0 °F 39% 29.88 in 10.0 mi WSW 12.7 mph - N/A   Clear
3:54 PM 72.0 °F - 39.0 °F 30% 29.87 in 10.0 mi West 9.2 mph - N/A   Clear
4:54 PM 69.1 °F - 37.0 °F 31% 29.88 in 10.0 mi West 12.7 mph 17.3 mph N/A   Clear
5:54 PM 64.9 °F - 39.0 °F 39% 29.91 in 10.0 mi WNW 8.1 mph 18.4 mph N/A   Clear
6:54 PM 61.0 °F - 39.9 °F 46% 29.94 in 10.0 mi West 6.9 mph - N/A   Clear
7:54 PM 60.1 °F - 39.9 °F 47% 29.97 in 10.0 mi WNW 4.6 mph - N/A   Clear
8:54 PM 53.1 °F - 41.0 °F 64% 29.99 in 10.0 mi Calm Calm - N/A   Clear
9:54 PM 48.0 °F - 42.1 °F 80% 30.02 in 10.0 mi Variable 3.5 mph - N/A   Clear
10:54 PM 53.1 °F - 39.0 °F 59% 30.06 in 10.0 mi North 3.5 mph - N/A   Clear
11:54 PM 50.0 °F - 39.9 °F 68% 30.07 in 10.0 mi NW 4.6 mph - N/A   Clear